Terug naar catalogus

THORAD AGENA D DEB

ActiefPO
NORAD 5507·DEBRIS·🇺🇸 United States

Gelanceerd Apr 8, 1970 vanaf Vandenberg Space Force Base

Loading…

Volgende Passages (komende 24 uur)

TLE

VersSource: Space-Track

Epoch: Sep 14, 2026, 15:03 UTC

1 05507U 70025LL  26257.62757435  .00002593  00000-0  88581-3 0  9994
2 05507  99.2619 309.7880 0024932 168.0970 192.0808 14.37133310864632

Volg THORAD AGENA D DEB in realtime met AllMySat

Download on the App Store